OpenBCM V1.08-5-g2f4a (Linux)

Packet Radio Mailbox

IZ3LSV

[San Dona' di P. JN]

 Login: GUEST





  
I0OJJ  > KEPS     16.08.25 02:40l 324 Lines 15336 Bytes #149 (0) @ AMSAT
BID : ORB25228.1
Read: GUEST
Subj: 2Line Orbital Elements 25228.AMSAT
Path: IZ3LSV<IK6IHL<IK7NXU<HB9ON<HB9ON<PI8ZTM<IR0AAB<I0OJJ<I0OJJ
Sent: 250816/0025z @:I0OJJ.ITA.EU [Rome] obcm1.08-10-g596e

>From i0ojj%i0ojj.ita.eu@i0ojj.ampr.org Sat Aug 16 02:25:06 2025
Received: from i0ojj.ampr.org by i0ojj.ampr.org (JNOS2.0p.8) with SMTP
	id AA17039336 ; Sat, 16 Aug 2025 02:25:06 +0200
Message-Id: <ORB25228.1@i0ojj.bbs>
>From: i0ojj@i0ojj.ita.eu
X-JNOS-User-Port: Telnet   (i0ojj @ 44.134.109.10)  -> Sending message

From: I0OJJ @ I0OJJ.ITA.EU (Gustavo)
To:   KEPS @ AMSAT
X-Info: This message was generated automatically


QST de KM1P

AMSAT Orbital Elements for Amateur Satellites in TLE Format
>From Orbital Analysis Auxilliary Summer Office
New England Sci-Tech STEM Education Center
Narragansett RI August 16, 2025
To all radio amateurs


These element sets describe the orbits of various satellites 
in use by the amateur radio community. For details see:
www.amsat.org/keplerian-elements-formats/

A daily update of element sets is available at:
www.amsat.org/tle/daily-bulletin.txt
or without bulletin text:
www.amsat.org/tle/dailytle.txt


AO-07
1 07530U 74089B   25227.53018912 -.00000043  00000-0  23281-4 0  9998
2 07530 101.9962 232.5116 0012236 356.4330 125.4933 12.53690813322454
UO-11
1 14781U 84021B   25227.57906122  .00001349  00000-0  14711-3 0  9990
2 14781  97.7602 192.6487 0009286 110.9496 249.2716 14.89553973211612
AO-27
1 22825U 93061C   25227.42079050  .00000080  00000-0  47813-4 0  9998
2 22825  98.7320 289.2945 0007255 278.1062  81.9297 14.30817810663547
FO-29
1 24278U 96046B   25227.44236442 -.00000042  00000-0 -73552-5 0  9990
2 24278  98.5655 112.5123 0350092 169.2030 191.6881 13.53251787431811
NOAA-15
1 25338U 98030A   25227.49298684  .00000150  00000-0  79409-4 0  9998
2 25338  98.5335 251.0075 0010727 157.4245 202.7409 14.27011779417949
GO-32
1 25397U 98043D   25227.49797153  .00000067  00000-0  49271-4 0  9993
2 25397  98.9763 208.0319 0001955  48.9226 311.2121 14.24329462407812
ISS
1 25544U 98067A   25227.71259318  .00007263  00000-0  13539-3 0  9996
2 25544  51.6366  12.0241 0003560 223.0324 221.7434 15.49941620524396
NO-44
1 26931U 01043C   25227.49753232  .00000107  00000-0  71093-4 0  9994
2 26931  67.0522 314.8200 0006699 276.2396  83.7942 14.31762539246688
SO-50
1 27607U 02058C   25227.50609349  .00001001  00000-0  14089-3 0  9998
2 27607  64.5543 353.9198 0063378 319.6984  39.9432 14.81785992219147
CO-55
1 27844U 03031E   25227.43020980  .00000282  00000-0  14159-3 0  9991
2 27844  98.6776 234.8457 0009576   1.2866 358.8336 14.24040802148153
CO-57
1 27848U 03031J   25227.48028585  .00000232  00000-0  12138-3 0  9999
2 27848  98.6806 234.8502 0009854  18.3111 341.8420 14.23369256147930
RS-22
1 27939U 03042A   25227.61248311  .00001093  00000-0  18038-3 0  9999
2 27939  98.3341  38.7104 0011947 152.2933 297.5565 14.72492626170561
CO-58
1 28895U 05043F   25227.37870745  .00001587  00000-0  26534-3 0  9997
2 28895  98.2585  12.6029 0015685  95.3307 264.9689 14.71212050 56999
CO-65
1 32785U 08021C   25227.57055848  .00004572  00000-0  32623-3 0  9993
2 32785  97.7909 199.2750 0009228 359.7178   0.4041 15.05019342939158
CO-66
1 32791U 08021J   25227.48369447  .00011917  00000-0  55381-3 0  9990
2 32791  97.7330 209.0989 0001464 326.9541  33.1602 15.20145591940657
RS-30
1 32953U 08025A   25227.60190657  .00000038  00000-0  20128-3 0  9996
2 32953  82.5048 185.5010 0017881 259.6769 100.2295 12.43167122781723
NOAA-19
1 33591U 09005A   25227.59712833  .00000069  00000-0  60838-4 0  9995
2 33591  98.9929 292.6645 0014025 170.3370 189.8075 14.13396174851311
SRMSAT
1 37841U 11058D   25227.06747854  .00000405  00000-0  76534-4 0  9995
2 37841  19.9718 112.1966 0011795  76.8387  67.3572 14.11452806714732
ZACUBE-1
1 39417U 13066B   25227.43165901  .00004562  00000-0  39230-3 0  9994
2 39417  97.7845 184.1302 0043553 185.6611 174.4125 14.97178934634913
Delfi-N3xt
1 39428U 13066N   25227.50536770  .00005406  00000-0  54235-3 0  9990
2 39428  97.8294 144.4280 0084831 139.0903 221.6722 14.89051782629036
GOMX-1
1 39430U 13066Q   25227.56782144  .00001469  00000-0  23362-3 0  9999
2 39430  97.6773  82.1075 0131550 338.6632  20.9118 14.67873938625234
LO-74
1 39440U 13066AA  25227.49084741  .00003467  00000-0  34994-3 0  9993
2 39440  97.8514 171.6145 0060329 320.5564  39.1269 14.90405424631403
AO-73
1 39444U 13066AE  25227.46786923  .00005061  00000-0  37279-3 0  9996
2 39444  97.7852 189.6895 0042211 157.9216 202.3839 15.03081809633634
DTUSAT-2
1 40030U 14033W   25227.54628461  .00007061  00000-0  45004-3 0  9992
2 40030  98.0608 202.6586 0008955 182.0140 178.1053 15.09038937606497
EO-80
1 40032U 14033Y   25227.49684330  .00006077  00000-0  38716-3 0  9993
2 40032  98.0486 202.1683 0010068 128.0086 232.2052 15.09108834606982
LILACSAT-2
1 40908U 15049K   25227.55417422  .00010894  00000-0  27213-3 0  9998
2 40908  97.5048 249.5745 0006837 279.2957  80.7516 15.40315554548532
IO-86
1 40931U 15052B   25151.18580175  .00001241  00000-0  78118-4 0  9996
2 40931   6.0006  24.0987 0012733 338.8432  21.1169 14.78805930523159
Horyu-4
1 41340U 16012D   25227.57446900  .00024478  00000-0  59788-3 0  9990
2 41340  30.9974  40.5422 0007565  37.8085 322.3092 15.39572472523115
Lapan A3
1 41603U 16040E   25227.60052187  .00003214  00000-0  11203-3 0  9992
2 41603  97.1399 229.6016 0011930  38.9481 321.2617 15.30273805508039
CAS-2T
1 41847U 16066G   25227.22199424  .00000676  00000-0  10581-3 0  9991
2 41847  98.4166 301.0952 0345037 337.0634  21.5456 14.43652584460632
CAS-4B
1 42759U 17034B   25227.48853668  .00104058  00000-0  71177-3 0  9992
2 42759  43.0037 280.4365 0021270  38.2876 321.9498 15.73406732453107
CAS-4A
1 42761U 17034D   25227.51608023  .00120507  00000-0  74637-3 0  9993
2 42761  43.0070 276.4827 0022018  43.8713 316.3900 15.75600931453147
TechnoSat
1 42829U 17042E   25227.46892461  .00003440  00000-0  26521-3 0  9997
2 42829  97.3985  32.9948 0018206  56.9103 303.3867 15.02112797440760
AO-91
1 43017U 17073E   25227.20295048  .00006505  00000-0  32955-3 0  9994
2 43017  97.5143  96.2990 0168281 299.7307  58.7265 15.05767097419233
S-Net D
1 43186U 18014G   25227.46835148  .00005047  00000-0  29425-3 0  9994
2 43186  97.5543 129.6915 0008930   7.6304 352.5061 15.12392163412484
S-Net B
1 43187U 18014H   25227.27613980  .00005225  00000-0  30467-3 0  9998
2 43187  97.5547 129.4765 0009502   2.2790 357.8482 15.12369722412453
S-Net A
1 43188U 18014J   25227.46850488  .00004990  00000-0  29094-3 0  9998
2 43188  97.5555 129.8257 0009399   3.0986 357.0301 15.12397696412489
S-Net C
1 43189U 18014K   25227.27870634  .00005265  00000-0  30693-3 0  9996
2 43189  97.5569 129.6633 0010677 354.2357   5.8749 15.12366251411009
Ten-Koh
1 43677U 18084G   25227.47250537  .00002143  00000-0  17361-3 0  9990
2 43677  98.0843  42.3771 0008196  52.2960 307.9004 15.00846341370277
PO-101
1 43678U 18084H   25227.56547662  .00002125  00000-0  18248-3 0  9994
2 43678  98.1063  46.2700 0008903  70.9180 289.3004 14.98586675370411
QO-100
1 43700U 18090A   25227.54257714  .00000142  00000-0  00000-0 0  9992
2 43700   0.0135 103.2546 0001106  63.3211  18.7335  1.00271989 24617
MinXSS-2
1 43758U 18099A   25227.45031686  .00015300  00000-0  56891-3 0  9996
2 43758  97.4967 293.7696 0009862 278.6853  81.3269 15.27570330367173
AO-95
1 43770U 18099N   25227.43536256  .00008590  00000-0  42164-3 0  9992
2 43770  97.4861 284.8093 0009591 347.8658  12.2343 15.18291624366691
SNUSat 2
1 43782U 18099AA  25227.57878119  .00006490  00000-0  34619-3 0  9990
2 43782  97.4544 281.1479 0010205 281.9270  78.0818 15.15455176366645
SnugLite
1 43784U 18099AC  25227.38496043  .00008374  00000-0  40763-3 0  9993
2 43784  97.4356 280.6619 0001763 281.7256  78.3781 15.18623383366775
ITASat 1
1 43786U 18099AE  25227.59492518  .00005090  00000-0  28602-3 0  9991
2 43786  97.4513 280.4714 0013160 341.0132  19.0607 15.13670761366599
EAGLET 1
1 43790U 18099AJ  25227.57793042  .00003583  00000-0  22697-3 0  9993
2 43790  97.4708 280.1811 0010843 325.3887  34.6635 15.09542226366179
ESEO
1 43792U 18099AL  25227.38926013  .00001516  00000-0  11743-3 0  9994
2 43792  97.4445 272.3551 0010147 298.8660  61.1547 15.02835493365858
JO-97
1 43803U 18099AX  25227.60205213  .00010261  00000-0  44986-3 0  9996
2 43803  97.4609 286.1201 0005843 266.4594  93.5973 15.22163129366969
Suomi 100
1 43804U 18099AY  25227.59704088  .00007862  00000-0  37308-3 0  9992
2 43804  97.4672 285.2112 0010481 273.0737  86.9298 15.19487958366879
ISAT
1 43879U 18111D   25227.48795669  .00020298  00000-0  65282-3 0  9992
2 43879  97.5888 143.4475 0006408 338.2124  21.8844 15.32262308363930
UWE-4
1 43880U 18111E   25226.73818959  .00015518  00000-0  57557-3 0  9994
2 43880  97.5836 140.6699 0010478 349.9765  10.1263 15.27646858361725
Sparrow
1 43881U 18111F   25227.28262337  .00021531  00000-0  66298-3 0  9993
2 43881  97.6045 146.3848 0006625  26.7501 333.4081 15.33640605364009
Prox-1
1 44339U 19036A   25227.61299968  .00010422  00000-0  12758-2 0  9994
2 44339  23.9976 341.0859 0007837 110.7490 249.3847 14.81163501327962
Taurus 1
1 44530U 19059C   25227.53850732  .00005965  00000-0  10840-2 0  9991
2 44530  98.6138  10.1656 0009574 182.2967 177.8193 14.66531672313758
Duchifat 3
1 44854U 19089C   25227.52214263  .00057552  00000-0  90977-3 0  9994
2 44854  36.9405 287.8599 0005397 146.5510 213.5590 15.52403264313338
TO-108
1 44881U 19093C   25227.57475732  .00000807  00000-0  98997-4 0  9996
2 44881  97.7889 301.8166 0014070  17.7267 342.4436 14.85719222306020
FloripaSat 1
1 44885U 19093G   25227.51105841  .00004840  00000-0  40320-3 0  9992
2 44885  97.8131 315.2712 0009096 343.8118  16.2812 14.99084050306776
